User: anonymous   Login
Location: *
(44.1392°N, 4.8079°E)
Time: 10:04:26
(UTC+00:00)
Language:

USA 290 - Orbit

View from above orbital plane
View from above orbital plane
View from above satellite
View from above satellite

Ground track
Ground track

The orbit data is extracted from the following two-line orbital elements,

1 43941U 19004A   21244.78005645 0.00003000  00000-0  46814-4 0    06
2 43941  73.5808 113.7780 0012270 294.2040  65.7959 15.53617724    06
Epoch (UTC): 01 September 2021 18:43:16
Eccentricity: 0.0012270
inclination: 73.5808°
perigee height: 398 km
apogee height: 414 km
right ascension of ascending node: 113.7780°
argument of perigee: 294.2040°
revolutions per day: 15.53617724
mean anomaly at epoch: 65.7959°
orbit number at epoch: 0

The dashed part of the orbit path shows where the satellite is in the earth's shadow,  

DLR